GFSMW_prec_cthk_084.txt.gz
RH
41 51 56 69 76 80 85 88 86 89 88 85 88 88 91 92 89 86 87 86 88 81 73 71 72 71 81 71 62 51 45 41 38 35 37 41 46 51 53 53 53 53 51
37 39 40 52 67 70 68 67 68 68 75 77 78 81 84 79 78 79 79 77 74 72 73 81 82 86 79 65 53 51 47 42 41 40 41 44 49 53 60 60 59 56 54
35 34 39 36 38 52 59 53 51 51 53 55 60 64 68 72 75 72 74 72 76 76 80 82 78 83 76 70 66 64 60 56 51 49 50 53 56 59 61 65 65 62 61
36 35 37 34 36 38 40 39 42 42 43 48 48 50 52 52 57 59 62 64 68 75 84 81 78 82 86 88 87 83 80 76 70 65 62 62 63 64 63 65 66 70 67
43 35 37 41 41 40 42 42 42 45 43 42 43 44 46 49 49 51 53 53 58 65 75 75 80 87 86 88 85 85 83 79 77 75 75 74 74 76 75 73 77 76 71
50 44 38 43 46 48 45 44 44 49 49 47 46 46 45 47 51 54 57 62 62 64 73 75 80 83 89 90 86 81 82 82 83 85 86 86 86 86 85 80 82 77 73
49 48 47 43 46 42 47 48 48 49 51 52 52 53 54 56 56 62 67 69 68 70 75 79 81 78 74 72 75 81 81 82 85 90 94 94 93 93 86 84 80 79 79
48 47 47 48 44 45 42 42 44 47 50 52 53 53 55 60 60 60 62 66 70 77 77 76 77 65 68 76 85 79 83 81 97 96 97 97 96 93 90 90 89 84 80
42 40 46 48 49 51 49 43 39 43 45 48 52 54 52 57 60 61 60 61 73 80 81 80 79 74 78 82 78 79 79 91 92 97 97 97 95 92 89 87 91 86 68
41 43 47 48 49 48 54 60 59 57 51 53 48 47 51 53 58 60 65 63 66 76 83 89 89 89 86 84 83 78 83 77 78 89 94 92 87 77 82 84 83 71 61
41 43 41 37 44 45 52 61 67 68 64 59 52 55 54 52 56 61 64 69 71 78 85 90 92 91 85 85 83 82 85 72 71 71 78 78 74 69 70 71 69 66 63
40 37 38 35 33 36 43 48 58 64 65 64 54 52 56 68 78 67 74 84 92 92 92 90 94 89 82 85 87 83 84 72 72 70 70 78 77 71 69 68 68 67 64
39 38 42 46 40 31 32 36 46 53 56 55 58 56 52 56 60 64 75 89 94 84 89 91 90 87 85 87 90 89 84 72 78 75 71 76 73 68 68 70 70 67 60
42 39 42 46 42 33 26 24 24 27 33 43 43 44 44 53 58 70 89 98 85 77 79 86 86 89 89 89 86 87 88 71 80 76 81 75 70 71 73 72 67 58 49
43 39 38 42 40 31 31 28 25 25 27 27 34 49 62 69 74 80 89 70 73 80 80 85 86 86 86 84 82 85 75 81 76 93 88 73 73 75 72 67 59 52 48
41 36 38 41 39 37 35 34 35 33 31 35 44 50 53 56 59 63 63 60 68 73 77 82 86 82 77 76 91 85 80 85 77 78 70 75 78 77 69 60 52 49 49
41 38 40 42 41 36 33 32 35 35 38 47 51 51 48 50 53 54 58 61 69 73 74 75 78 81 77 78 77 76 96 85 73 73 79 83 80 71 59 54 52 51 52
40 42 41 39 39 37 32 34 36 40 46 49 48 44 46 49 50 53 56 59 62 67 71 75 76 76 86 81 69 85 88 76 78 82 85 77 64 60 59 54 54 49 49
40 39 40 39 38 30 30 34 36 37 39 42 43 51 53 52 53 54 58 62 65 67 68 71 78 74 77 68 80 80 81 84 84 81 72 66 66 62 55 51 54 53 50
40 41 37 36 32 29 32 38 39 41 42 45 49 50 47 48 50 53 57 58 57 60 60 61 64 75 75 83 88 83 88 86 79 74 69 66 61 58 59 57 55 55 55
38 38 36 32 31 33 35 38 41 43 47 49 47 48 48 49 48 51 50 50 55 65 67 69 79 87 90 87 90 91 84 78 74 66 63 62 64 63 58 57 58 58 59
41 41 39 40 42 44 44 44 45 45 47 48 49 50 51 52 54 55 57 61 67 72 82 89 89 90 93 96 93 87 80 75 70 71 71 71 63 61 62 63 64 64 62
47 48 46 48 50 51 50 49 51 53 55 58 57 57 56 62 67 69 69 76 82 88 90 91 96 98 96 92 86 79 70 68 77 75 72 71 68 66 66 67 67 66 63
54 54 54 54 57 58 57 57 62 65 67 68 67 65 69 73 77 81 86 88 91 93 97 98 97 94 92 85 76 79 85 86 82 78 70 68 67 68 71 72 71 68 66
64 66 64 65 67 69 69 70 72 72 72 72 72 76 80 83 87 89 91 94 97 97 97 94 92 89 84 85 92 94 86 81 73 74 73 73 73 73 74 75 73 70 67
71 73 74 73 71 71 74 78 80 83 87 88 87 86 90 92 93 96 98 97 97 97 95 89 88 89 92 96 87 81 82 88 85 81 80 80 79 79 79 77 74 71 62

GFSMW_prec_cthk_087.txt.gz
RH
34 40 59 77 79 76 80 86 91 90 92 88 89 84 78 78 84 85 87 85 86 83 76 72 65 63 65 67 76 74 59 52 42 37 34 33 35 38 42 49 52 55 56
35 31 41 66 76 83 85 85 83 89 87 90 87 84 84 85 90 85 86 87 87 79 75 68 64 64 70 76 76 63 61 55 46 42 41 41 42 46 51 54 58 59 61
38 35 36 41 58 59 62 62 71 78 81 83 82 83 82 84 87 83 84 79 82 79 79 77 72 78 84 80 74 73 67 68 64 58 55 55 55 57 61 65 66 65 64
39 37 38 35 37 41 45 42 44 51 60 70 74 76 79 78 76 77 75 75 76 76 75 78 81 85 86 82 79 77 79 79 81 80 75 70 67 68 71 73 73 76 75
44 33 35 41 37 38 35 38 38 40 47 53 55 56 58 61 67 66 65 64 69 73 74 78 83 79 79 82 86 86 86 85 86 85 82 79 75 75 77 79 81 82 80
45 43 34 41 40 38 36 35 37 37 42 45 47 46 48 50 51 53 53 55 59 62 65 67 73 76 81 84 87 90 92 92 82 76 78 79 82 81 86 87 89 89 81
44 44 38 38 43 39 40 39 38 37 39 41 45 49 50 51 52 54 58 59 60 58 58 63 71 76 80 82 85 80 77 77 82 83 82 84 86 94 95 95 97 86 77
44 45 41 40 40 43 37 36 35 35 37 39 40 42 43 46 49 51 53 54 56 61 66 70 77 81 78 75 70 69 77 80 87 82 79 91 83 92 96 97 94 84 75
47 43 42 44 47 48 49 45 40 38 44 48 47 45 44 45 51 51 51 53 59 61 69 78 79 77 81 79 77 79 81 82 75 79 85 72 74 86 91 93 81 74 69
47 43 42 45 45 51 50 55 60 56 61 60 59 57 53 53 53 54 57 60 63 66 67 75 82 83 84 89 91 88 90 88 87 78 96 69 71 73 75 73 72 67 64
41 41 39 44 40 44 51 52 56 66 67 68 68 66 59 61 63 60 60 65 75 79 81 83 86 93 97 97 91 86 83 84 85 83 82 73 72 68 67 69 71 69 65
41 37 38 38 44 39 40 42 48 58 69 72 72 67 58 58 59 61 69 76 75 76 88 94 94 97 98 96 96 90 88 87 87 89 87 75 72 69 71 68 70 69 68
48 42 40 42 43 47 42 37 41 48 62 70 71 66 58 59 59 58 59 63 70 89 98 98 93 92 93 94 93 90 87 89 83 81 85 84 76 75 76 77 81 76 74
49 45 42 40 43 45 42 35 30 32 35 37 41 47 51 49 52 58 69 78 91 93 74 75 78 81 88 92 92 85 86 86 83 84 87 80 71 75 77 86 85 77 78
47 47 42 40 39 42 39 35 32 31 30 28 29 29 35 41 57 70 73 77 83 87 79 69 80 78 82 85 86 86 81 79 79 91 87 74 73 85 80 83 78 80 78
46 46 43 40 41 43 41 37 33 30 28 28 30 32 44 53 58 60 63 71 69 66 71 71 71 74 75 79 85 83 83 78 88 98 79 82 93 94 86 80 82 83 79
43 41 40 38 39 43 43 40 38 33 34 36 39 45 49 53 54 54 57 60 58 67 64 64 64 69 78 87 84 82 80 90 95 95 86 88 92 92 82 83 86 84 70
39 42 41 38 40 40 41 42 42 37 41 44 49 52 52 49 46 52 57 57 58 57 60 65 70 75 87 85 87 84 96 90 91 82 85 94 93 88 87 89 81 70 64
39 41 42 39 41 41 40 38 37 35 42 50 48 50 51 52 57 59 60 59 60 60 63 65 67 75 85 88 89 95 86 83 91 95 94 97 95 92 85 76 65 60 63
42 40 39 40 43 39 35 30 31 36 43 46 49 52 53 53 54 53 53 58 58 58 59 63 63 70 75 82 80 81 92 95 95 96 98 95 87 80 72 66 60 64 65
43 41 43 43 42 38 36 38 40 45 49 53 54 53 53 51 50 51 53 55 56 59 58 64 68 71 74 76 92 96 99 98 97 97 92 87 78 70 67 69 75 76 68
43 42 43 47 43 44 46 48 51 54 55 58 57 56 55 56 58 60 58 59 62 63 68 78 80 78 84 93 98 98 97 97 97 94 87 77 74 77 82 75 72 74 75
52 53 52 50 49 52 54 56 57 59 59 61 60 60 61 64 65 67 71 71 72 75 83 87 91 95 98 99 98 98 97 97 92 85 84 84 87 88 85 82 81 84 85
58 57 57 57 58 61 64 66 66 69 71 72 70 69 71 75 78 80 81 82 88 92 96 97 96 96 97 97 97 96 95 94 94 94 94 94 87 82 83 86 88 89 86
66 67 68 69 70 76 77 76 76 76 78 79 81 83 86 87 88 91 94 97 98 98 97 98 98 97 97 97 96 97 97 97 97 94 92 93 93 91 92 93 93 93 94
72 74 76 78 79 81 81 82 82 79 78 79 83 86 92 96 97 97 97 97 97 97 97 97 97 97 97 97 97 97 97 97 97 97 97 97 97 96 96 98 98 97 92

GFSMW_prec_cthk_090.txt.gz
RH
40 34 49 72 80 75 79 82 84 89 89 90 94 91 89 79 79 82 81 80 88 86 84 84 81 80 78 74 74 68 72 80 63 48 40 34 31 31 34 40 44 46 49
46 33 37 60 77 78 76 81 88 92 92 93 91 95 91 90 82 84 84 83 88 88 88 84 84 80 77 68 66 72 81 70 59 53 47 40 38 39 41 46 52 58 61
47 39 34 41 56 66 75 82 85 92 93 92 88 92 88 91 86 85 85 89 92 90 87 88 78 70 67 66 72 76 76 69 65 64 59 55 54 53 53 60 65 68 71
46 41 41 37 35 50 57 59 69 77 82 87 88 91 88 86 85 85 90 92 91 91 87 84 69 64 65 68 78 81 81 81 78 75 75 74 75 75 71 69 69 71 74
44 42 35 42 37 38 39 42 50 55 61 67 77 80 83 81 79 77 80 86 84 81 81 75 70 73 75 81 87 86 85 86 88 87 85 79 75 71 73 74 77 78 80
41 45 37 41 44 42 40 42 42 44 47 50 51 56 61 67 71 73 75 75 76 78 76 76 77 78 77 83 86 88 87 88 92 93 92 88 72 79 80 80 81 84 85
36 40 39 38 43 41 43 41 41 43 45 48 47 46 47 51 52 56 61 61 61 60 61 63 66 70 78 78 79 81 85 93 96 92 92 83 77 81 82 82 87 86 89
35 39 40 38 41 46 41 37 39 40 39 43 42 43 46 46 48 53 59 60 61 60 59 59 63 68 72 72 74 79 90 95 85 81 84 82 85 86 90 80 77 79 84
37 37 41 38 40 43 48 44 41 38 39 43 42 41 41 43 45 49 53 58 61 61 61 61 64 70 71 72 73 79 79 81 81 88 88 84 84 85 89 78 72 74 74
39 40 39 38 42 45 47 52 55 48 44 47 50 51 51 49 48 48 53 56 60 60 61 62 61 64 76 87 89 88 87 90 92 96 94 91 91 87 87 75 73 69 68
38 38 36 38 39 43 42 51 54 59 61 61 60 58 57 56 55 56 57 57 55 57 61 68 75 81 85 86 92 96 96 96 93 91 93 93 95 87 94 83 78 72 65
39 39 37 40 42 42 41 37 43 51 55 63 66 69 65 61 59 57 58 60 63 70 77 83 88 92 95 97 94 95 98 94 88 92 97 96 94 89 81 81 82 72 74
37 35 38 40 40 43 48 41 37 38 44 55 67 72 75 69 64 59 63 67 69 74 79 84 93 89 83 95 96 98 94 98 96 97 93 91 85 79 78 88 84 75 71
40 37 42 40 38 42 49 41 34 31 34 36 40 45 47 52 60 66 62 61 62 72 81 91 91 82 75 74 82 83 84 89 92 91 87 83 77 77 87 96 90 82 83
45 47 44 42 40 38 44 45 41 35 32 31 30 26 29 31 35 40 50 62 76 80 80 83 85 85 84 81 78 78 76 81 87 85 81 79 87 90 91 95 95 92 88
46 48 46 45 42 39 41 43 45 44 39 34 31 33 36 39 43 49 62 68 67 68 74 76 78 75 75 80 80 74 77 80 85 88 84 82 88 94 99 95 92 91 95
52 46 43 43 41 39 39 43 46 47 46 45 42 41 45 53 60 60 62 65 67 64 64 66 60 65 64 61 66 70 75 88 93 92 89 88 96 90 87 98 98 95 97
46 49 43 40 40 42 42 44 44 46 48 50 50 50 56 62 62 61 59 60 60 66 64 61 61 63 65 65 66 72 73 93 98 88 86 94 98 94 94 95 97 97 98
43 46 43 40 42 42 41 43 47 48 45 47 52 58 63 61 58 60 62 61 62 60 59 58 60 60 65 65 68 68 71 86 97 80 88 90 93 93 98 96 97 96 85
42 44 45 45 43 41 41 43 43 40 41 43 48 55 58 56 58 60 59 59 59 54 59 62 61 60 64 65 68 74 87 86 87 95 89 96 99 96 98 95 89 86 79
45 45 45 45 42 43 45 43 42 43 46 50 54 57 59 59 59 62 63 60 59 66 68 68 66 67 67 71 77 86 94 94 90 92 97 97 97 97 94 90 83 77 81
55 54 50 50 51 53 52 53 55 54 56 57 58 60 61 62 64 62 62 65 68 72 73 74 80 81 83 84 90 94 97 97 98 98 97 97 96 91 84 83 91 93 93
61 61 60 64 66 65 64 63 61 63 63 64 66 65 66 68 68 69 71 75 78 81 83 84 89 91 92 93 95 98 98 97 97 96 97 97 96 97 97 97 95 93 93
66 70 70 69 71 72 70 71 71 70 71 73 74 74 75 76 76 78 82 86 90 92 94 96 97 97 98 98 97 97 97 97 97 97 97 97 97 97 97 97 97 97 97
78 80 82 73 77 77 77 78 78 76 75 77 79 79 79 78 80 84 89 92 94 97 98 97 97 97 97 97 96 96 97 97 97 97 97 97 97 97 97 97 97 98 98
83 85 92 83 83 84 84 84 82 80 80 80 79 78 77 79 82 86 91 95 97 97 96 96 96 95 95 95 96 97 96 96 96 97 97 97 97 97 98 98 98 98 98

GFSMW_prec_cthk_096.txt.gz
RH
43 38 39 25 46 68 69 73 74 73 81 95 97 99 99 98 98 98 99 99 95 86 67 68 64 67 68 73 74 78 80 83 85 83 78 68 64 59 45 43 45 47 41
42 37 39 26 40 66 66 70 72 75 82 90 97 98 99 99 98 99 98 98 95 82 72 69 69 71 74 77 78 80 81 79 84 86 82 76 72 57 46 44 37 37 38
39 38 39 29 33 57 66 69 74 78 83 88 96 96 96 98 98 98 98 96 93 86 78 78 76 77 80 81 83 82 82 80 82 86 84 84 70 61 58 53 49 47 48
39 38 38 33 28 41 55 63 71 77 81 90 94 96 97 97 97 95 97 94 94 94 90 86 84 85 84 84 84 84 83 81 81 85 84 82 69 70 70 73 67 65 66
37 36 39 33 30 33 39 46 55 65 77 84 90 90 91 93 92 94 91 89 91 92 94 92 89 90 92 88 86 85 80 77 73 76 87 86 80 82 81 80 81 79 77
37 35 39 31 34 36 36 38 42 45 58 67 81 84 86 85 86 92 93 91 91 94 94 93 89 91 91 88 80 76 73 64 71 82 86 89 93 92 89 89 93 97 94
40 36 35 32 29 34 37 38 38 40 47 52 60 75 82 83 85 87 91 90 89 92 89 89 87 86 83 73 70 69 67 72 82 85 90 89 92 95 94 93 95 94 98
41 37 32 33 31 33 35 38 38 38 40 45 50 55 63 65 68 71 74 75 77 76 75 74 75 74 76 74 78 81 78 77 81 84 85 85 84 83 85 94 98 99 98
40 39 33 38 37 36 37 36 41 41 39 37 43 47 49 52 56 59 60 62 65 65 65 64 63 65 69 75 74 73 71 73 77 76 75 74 75 76 78 84 92 99 93
39 42 39 41 41 39 42 43 41 42 46 43 43 43 43 46 50 51 53 55 57 59 59 60 61 64 65 66 67 68 70 74 76 77 79 78 77 80 83 90 93 98 99
37 42 43 44 44 43 44 44 47 48 48 50 50 50 53 55 54 53 52 52 54 56 59 60 62 64 65 67 73 75 76 78 80 82 81 83 86 90 96 98 96 96 97
44 43 46 46 47 45 42 42 43 46 50 52 53 56 59 61 64 67 68 63 60 62 65 69 70 71 72 74 76 76 78 82 83 85 88 85 91 97 99 97 98 98 98
49 48 48 50 47 46 45 42 47 45 48 51 55 58 58 57 60 66 70 70 66 64 66 68 71 72 71 70 70 72 78 86 92 91 84 82 84 78 84 89 94 97 98
50 50 51 49 47 46 46 45 46 47 48 50 50 52 52 51 54 64 62 68 71 70 68 69 69 67 69 76 83 86 88 90 89 89 85 85 91 80 80 79 81 85 84
51 51 50 47 45 46 45 48 46 47 45 48 49 45 43 43 44 44 50 58 67 69 75 76 67 69 75 83 84 89 91 90 86 85 89 81 83 82 79 78 77 75 78
52 50 51 49 46 47 48 50 50 49 45 47 49 49 46 43 39 38 39 41 44 47 50 55 65 71 75 80 81 88 85 80 76 76 76 69 70 73 73 73 74 72 87
49 49 49 49 48 49 55 54 52 51 52 53 55 56 57 55 53 52 52 52 52 56 61 68 73 74 72 72 74 76 73 72 73 68 65 67 66 68 69 72 75 74 78
48 48 55 49 49 47 51 57 55 51 53 58 59 61 63 66 65 65 65 65 64 69 69 73 75 74 69 68 70 69 71 67 64 64 62 62 67 71 71 70 78 82 79
51 48 49 56 51 48 54 59 57 56 56 55 61 64 64 65 67 69 79 80 78 75 77 77 74 69 66 66 67 66 65 62 65 69 71 74 72 75 80 82 83 88 90
55 55 54 51 51 50 56 56 58 55 57 57 61 63 65 65 61 58 62 65 66 71 75 73 68 67 67 71 74 75 71 76 78 79 81 83 87 90 91 93 95 97 97
58 60 62 57 54 55 55 62 63 61 62 60 59 63 61 59 59 63 66 70 73 73 72 72 75 78 81 82 78 79 81 83 84 86 90 93 95 95 96 96 95 96 96
62 63 64 65 62 63 68 70 66 63 66 66 65 68 63 64 68 74 75 76 77 78 81 83 83 82 80 80 81 83 87 92 96 96 96 95 94 92 91 92 92 91 92
69 70 66 66 66 66 70 67 66 71 71 74 73 73 72 72 76 78 79 80 81 81 83 83 85 86 83 84 87 89 93 96 95 93 90 88 88 89 89 89 89 90 92
77 79 78 77 75 76 75 76 76 77 76 77 79 77 75 77 79 80 79 84 87 86 85 81 81 84 85 88 90 91 90 86 85 84 85 84 84 83 83 84 84 84 83
91 86 83 82 80 82 82 82 82 81 77 80 82 83 82 83 86 85 84 82 79 78 80 82 84 84 86 88 87 84 82 81 78 78 75 70 65 59 56 53 51 51 50
98 94 89 88 89 89 87 86 85 83 80 81 89 89 89 87 80 77 76 76 78 79 80 80 81 82 83 83 80 75 68 59 49 45 42 41 41 41 41 41 41 41 41

GFSMW_prec_cthk_102.txt.gz
RH
42 43 44 40 40 33 32 42 51 57 68 69 68 67 70 76 88 93 92 93 96 97 95 88 87 94 89 91 85 79 77 71 68 74 73 75 75 75 73 68 63 62 52
43 42 43 40 38 33 33 39 54 55 59 63 65 71 75 77 89 94 91 92 98 97 96 91 87 87 89 97 86 81 78 74 76 80 75 78 78 78 73 72 65 65 56
42 40 42 40 37 33 34 37 45 57 60 63 68 74 79 88 95 95 95 92 97 97 96 94 89 87 87 90 87 83 81 79 82 83 77 80 79 77 72 71 70 66 61
35 37 40 40 36 33 34 39 42 48 58 64 68 74 82 92 96 95 96 96 97 98 98 94 92 88 90 91 88 86 86 87 84 84 83 81 82 80 75 73 72 70 65
35 36 37 37 35 33 32 37 42 43 46 56 70 78 82 85 93 98 99 97 100 98 98 95 93 91 94 93 91 90 87 84 88 87 82 82 79 76 75 73 70 71 66
34 36 37 36 35 32 31 35 38 40 42 50 58 76 83 86 88 97 98 99 99 99 98 97 92 94 95 95 92 92 86 87 86 84 79 77 76 72 68 69 71 75 77
38 34 37 37 36 31 30 33 37 37 37 45 54 63 80 86 87 87 92 97 98 98 97 94 92 93 96 96 93 86 89 86 81 80 81 79 76 74 68 70 75 77 79
40 35 36 40 37 32 30 32 35 36 38 39 46 57 65 81 89 87 87 91 93 92 94 94 94 94 96 94 89 96 90 80 76 74 77 82 81 74 72 72 81 79 78
41 36 39 41 37 33 32 33 35 38 39 40 42 47 56 62 70 83 83 85 89 93 93 92 92 92 92 89 93 90 85 78 75 75 79 83 87 86 81 80 79 79 78
43 39 43 43 38 36 34 32 35 38 41 43 44 46 45 50 55 61 61 64 71 78 81 82 81 82 83 84 77 75 74 74 72 75 75 78 82 81 83 87 88 88 86
46 45 43 44 43 39 40 35 37 39 41 44 45 45 50 50 51 51 53 54 57 60 65 67 72 73 72 71 69 70 70 66 66 65 69 75 82 88 86 89 91 91 87
50 48 45 45 46 41 43 40 40 41 43 44 45 47 49 52 57 57 57 57 62 68 67 62 63 62 62 64 65 67 67 70 73 73 78 79 82 87 89 92 90 89 90
47 51 49 49 47 44 44 46 43 45 46 49 46 46 47 50 55 62 66 66 69 72 74 75 70 67 66 66 69 72 73 75 79 83 83 82 87 91 94 95 95 95 97
55 51 56 51 49 49 49 52 48 47 49 50 50 48 47 49 52 57 62 63 65 68 74 74 78 77 76 75 74 76 79 85 86 81 84 90 91 90 88 91 99 91 99
58 58 55 56 54 55 55 57 53 52 51 51 51 51 51 51 52 56 57 57 60 62 64 65 77 80 80 81 86 86 86 73 68 76 82 86 89 88 97 85 97 87 82
53 60 62 56 60 58 61 60 57 53 51 49 51 54 54 52 57 60 57 55 55 56 57 56 55 57 59 52 55 59 67 72 78 83 88 88 89 89 84 89 75 76 97
51 49 56 65 60 61 60 58 57 54 53 48 51 56 56 56 56 60 62 63 63 62 64 64 64 66 66 67 72 78 82 85 86 91 91 91 87 81 76 75 87 73 81
51 52 54 60 65 67 58 57 58 58 58 53 55 61 61 60 58 59 61 65 66 68 68 70 74 76 76 79 85 91 94 91 88 84 89 87 85 83 85 80 89 89 86
54 51 53 51 59 68 64 64 66 66 64 60 63 62 62 58 59 58 60 65 69 75 78 79 79 79 79 81 81 82 83 83 83 92 90 89 91 87 90 92 91 85 82
55 54 53 54 57 62 68 67 70 67 64 62 64 62 65 67 68 67 65 67 72 79 80 76 77 73 77 80 84 88 89 94 98 97 94 89 92 92 89 85 81 80 79
55 55 53 50 55 58 64 64 65 67 71 74 72 71 69 75 78 78 79 78 76 77 75 74 75 78 80 83 89 94 94 90 84 85 86 85 81 79 76 75 74 73 73
55 52 49 51 53 58 61 64 67 70 71 78 78 78 82 83 83 85 86 86 86 81 76 79 81 83 86 85 86 85 85 84 81 81 81 77 72 70 67 60 55 51 48
60 54 47 49 54 60 66 69 70 71 75 77 78 81 84 83 85 83 93 86 89 87 86 87 90 89 88 84 82 82 82 76 73 71 69 62 57 54 47 44 45 45 44
60 57 54 52 54 58 65 71 72 74 77 80 81 82 82 87 86 82 91 89 91 92 89 89 91 93 88 84 79 74 70 66 61 57 51 42 37 39 42 42 39 37 34
75 69 66 61 56 57 62 67 75 80 80 84 87 91 94 93 97 89 89 89 92 95 96 96 91 86 81 78 73 65 55 47 43 42 40 35 35 36 35 31 29 26 23
86 82 80 76 74 73 78 79 85 89 92 94 96 97 98 96 95 93 89 95 97 97 95 90 86 81 74 63 51 42 37 37 39 39 38 36 33 31 28 26 23 21 20

GFSMW_prec_cthk_105.txt.gz
RH
36 34 37 40 40 38 33 28 36 55 59 66 69 70 71 71 74 77 80 87 87 90 91 89 85 78 80 77 77 81 78 76 75 72 71 68 71 74 73 68 67 64 61
36 39 38 39 39 38 30 27 35 49 58 59 61 65 68 71 80 81 80 83 87 89 93 92 86 85 89 82 84 86 88 81 77 72 73 72 75 75 76 77 72 69 64
36 38 39 38 39 38 28 27 34 42 55 61 62 64 68 74 80 88 90 91 91 92 95 94 89 87 92 91 93 94 91 79 77 78 77 77 79 78 78 76 75 71 69
36 36 38 36 36 35 28 28 33 38 47 57 64 69 69 75 78 89 97 94 95 95 96 97 92 90 94 98 95 95 93 85 86 85 86 84 84 81 80 78 77 73 70
33 34 35 33 35 34 26 26 32 37 42 50 56 63 70 75 82 91 97 100 96 97 96 97 94 93 92 94 93 92 91 92 92 94 88 88 89 83 80 77 75 75 72
34 34 36 34 36 33 26 26 32 35 39 46 57 61 74 83 82 91 95 99 98 98 98 98 96 95 97 94 93 95 94 94 94 91 91 92 87 83 78 77 75 70 71
35 38 39 35 36 32 24 26 31 33 36 42 51 59 68 82 82 88 94 98 98 99 99 98 97 95 93 91 91 93 96 95 92 94 85 86 84 80 78 76 76 73 73
42 43 41 38 36 32 25 25 31 33 36 38 46 53 64 79 87 87 89 94 96 98 99 99 99 98 95 93 94 96 95 92 93 94 85 83 81 78 76 78 77 75 72
47 42 44 37 34 35 26 27 32 35 35 36 44 50 56 66 80 88 90 95 95 98 98 98 98 95 95 95 97 95 92 91 93 87 85 84 82 81 80 82 84 88 85
49 42 40 36 37 35 28 29 32 36 36 37 41 48 53 53 61 71 76 81 85 88 94 96 94 94 95 96 94 93 90 89 84 84 82 79 77 77 78 83 82 84 84
52 44 42 37 38 38 32 30 33 37 38 40 42 44 49 55 54 55 60 64 72 77 80 85 88 86 85 86 89 88 82 78 80 76 75 74 74 73 75 78 84 87 89
63 55 50 46 41 41 37 36 35 37 39 42 45 46 46 51 56 59 59 59 60 60 66 68 69 70 70 72 73 70 69 74 72 72 74 74 78 79 82 83 87 90 94
62 74 65 50 43 44 42 42 41 40 42 44 49 47 46 47 52 57 63 64 65 67 68 69 67 67 68 68 66 66 69 74 79 81 79 81 85 86 85 88 91 92 93
61 71 74 54 47 50 47 46 48 46 47 46 48 50 47 46 49 54 61 67 65 64 68 73 77 76 78 75 74 77 80 83 86 89 90 91 87 79 78 80 84 96 84
58 60 71 78 51 53 50 50 51 52 50 51 49 50 49 50 49 53 57 58 62 66 68 67 67 64 81 82 84 87 92 93 86 78 72 72 74 80 85 85 80 80 81
57 54 64 73 78 55 52 53 55 56 53 55 52 52 50 52 54 53 55 58 59 59 58 57 61 62 58 59 73 74 71 69 73 75 83 83 84 83 80 78 99 87 85
58 56 57 63 69 78 55 54 60 62 59 58 56 54 54 56 57 59 60 59 60 58 61 63 66 69 70 71 75 77 82 86 89 91 92 89 84 84 85 87 97 89 88
54 56 57 58 65 71 70 59 60 61 62 62 58 57 57 61 65 66 63 61 61 66 68 72 77 77 77 77 79 83 87 89 86 83 84 83 84 89 89 98 96 97 92
56 55 56 59 63 65 66 91 72 63 66 66 62 62 63 64 66 67 67 70 71 72 76 78 78 81 79 81 84 82 86 87 93 94 90 87 95 98 97 87 80 79 79
56 53 55 67 67 62 62 59 79 70 68 69 70 66 67 69 72 74 74 78 79 79 78 80 86 90 89 89 87 87 91 91 95 91 90 98 89 82 77 76 74 70 66
57 60 59 68 72 75 71 72 69 74 75 77 76 74 72 74 80 81 81 84 85 85 87 92 93 92 93 90 91 94 92 89 92 93 92 82 77 74 65 58 54 50 47
55 61 67 68 71 69 70 72 74 76 76 77 78 80 82 83 89 89 90 88 91 93 94 97 98 97 95 87 88 92 96 93 90 86 82 76 66 58 55 53 49 43 38
62 59 61 64 65 66 66 67 66 68 72 77 82 84 86 87 90 93 94 94 93 95 94 96 98 93 95 96 94 91 88 88 83 74 66 61 59 54 46 44 41 37 34
64 67 61 62 63 61 60 63 65 66 69 73 77 81 87 90 94 96 96 97 95 97 99 98 97 96 96 95 91 87 82 76 68 62 57 51 48 45 44 39 35 32 28
65 71 69 68 65 60 59 58 60 63 71 78 81 86 90 94 97 99 99 99 99 99 97 97 98 97 93 89 83 74 67 58 54 50 48 46 41 37 35 32 28 24 22
70 76 79 75 70 67 65 60 58 64 69 76 82 87 94 97 99 97 96 98 99 98 98 97 96 90 81 70 62 55 52 52 53 46 43 43 40 31 25 23 22 20 18

GFSMW_prec_cthk_111.txt.gz
RH
37 40 39 34 36 43 48 50 49 44 32 30 37 55 60 68 69 85 97 95 98 95 92 82 79 73 50 50 47 46 53 58 61 66 73 67 68 67 65 68 67 66 66
41 44 42 37 36 45 50 51 49 43 30 30 36 51 61 67 69 73 83 95 94 94 92 87 84 72 52 49 53 52 54 59 63 65 67 70 71 74 79 80 74 75 76
44 48 45 41 41 45 47 50 47 42 32 32 36 45 61 65 71 73 79 91 94 93 92 88 79 74 57 56 58 58 57 58 62 65 68 71 71 73 76 75 80 81 82
46 49 45 43 40 45 48 52 47 40 30 32 36 41 50 62 71 77 78 83 90 92 94 94 85 82 66 63 62 64 64 65 70 75 75 72 77 74 76 78 82 81 83
52 48 43 41 44 48 50 52 47 36 30 31 36 40 47 56 66 77 82 88 88 93 94 92 91 86 75 73 78 75 75 71 73 75 80 81 80 81 80 84 83 82 86
55 50 46 43 45 49 57 52 47 33 31 33 35 38 42 52 60 75 83 88 89 95 95 97 96 95 89 81 83 84 85 81 82 82 84 83 81 84 84 86 86 86 87
60 52 45 44 43 46 56 53 45 30 30 33 34 36 41 49 59 71 81 87 93 95 96 96 97 95 94 91 88 88 89 90 92 91 91 88 88 88 91 90 90 90 92
66 61 49 46 45 47 53 54 43 28 31 32 34 36 43 51 62 77 83 88 95 97 99 96 96 97 94 96 96 95 93 95 96 96 96 93 94 94 94 93 92 94 92
71 60 59 55 50 47 51 55 45 32 29 33 33 36 43 51 63 77 84 90 96 98 98 98 97 97 98 97 99 97 97 97 98 98 97 96 96 95 94 95 95 96 93
67 63 68 65 59 57 60 57 45 33 29 33 34 38 43 51 61 74 84 89 96 98 96 98 96 98 98 97 98 98 97 98 99 98 98 96 95 96 94 95 97 96 96
75 69 68 72 65 63 69 62 45 35 30 32 34 38 43 47 53 65 72 83 92 97 97 98 97 99 97 99 99 99 96 97 99 98 96 96 96 95 95 97 96 96 93
81 74 70 75 71 72 75 66 42 36 32 34 36 39 43 45 47 51 58 70 82 93 97 98 98 97 99 98 98 98 97 98 97 96 96 95 96 96 94 94 92 87 82
81 76 71 74 78 75 72 63 52 41 35 36 38 41 44 44 46 51 53 56 66 74 86 91 95 97 98 98 97 98 93 93 97 96 93 94 93 90 88 83 83 82 85
85 85 74 74 80 80 74 69 54 46 45 39 40 42 44 44 46 49 54 61 60 61 66 73 85 90 91 94 94 92 92 93 91 89 87 82 78 79 82 85 88 91 91
95 93 81 80 83 84 80 77 63 51 48 48 47 47 47 47 47 49 52 58 64 68 72 70 68 73 79 84 85 81 79 76 74 74 77 78 79 82 88 87 85 82 77
97 93 89 83 84 88 86 83 73 62 50 50 53 54 53 51 50 50 52 54 56 60 66 66 70 73 78 79 80 77 77 78 79 79 83 82 82 85 87 84 76 78 82
91 88 86 81 82 84 89 85 81 78 66 54 55 57 61 60 56 52 52 57 57 55 56 57 60 62 62 62 65 67 71 78 78 78 77 78 76 74 77 72 78 83 92
90 84 79 87 82 86 86 87 87 82 81 76 63 61 63 64 64 60 58 58 58 59 58 57 56 57 60 65 70 72 71 73 76 77 76 79 79 75 80 89 84 88 95
84 79 70 76 84 81 80 80 85 90 87 83 86 78 71 68 66 68 63 61 62 65 63 60 62 64 68 72 73 76 77 78 80 79 77 77 80 81 85 89 88 85 91
77 71 65 66 69 80 83 82 82 85 88 81 86 90 86 81 76 73 74 70 68 70 71 71 72 76 76 77 81 83 86 86 88 90 88 83 87 87 83 84 81 78 71
76 68 67 60 58 70 78 83 86 84 84 79 84 89 91 92 90 84 81 79 78 78 79 81 80 81 81 83 87 91 91 91 92 92 93 97 95 90 85 81 70 64 59
71 66 65 61 56 59 70 79 88 92 92 87 86 88 94 96 97 93 90 88 85 83 84 88 87 89 90 90 92 94 96 95 96 95 97 94 87 84 76 70 62 61 62
60 59 61 61 57 52 61 68 74 87 92 90 92 96 95 97 97 97 96 96 92 92 89 90 92 93 95 97 95 99 97 96 93 96 92 85 76 69 66 68 67 63 57
54 57 60 62 57 56 53 65 68 73 82 90 87 87 90 91 90 89 91 95 98 94 98 97 99 97 97 96 98 98 98 95 95 77 76 73 74 71 65 61 53 48 43
60 58 62 63 61 60 58 57 66 70 74 75 79 81 85 86 85 87 88 89 90 92 91 93 95 95 90 90 96 96 93 86 80 79 75 67 64 58 51 47 41 34 28
60 61 66 65 68 67 66 62 60 65 70 73 77 77 76 74 76 81 78 82 86 85 83 86 98 95 97 93 93 84 78 75 72 69 62 53 49 44 40 35 31 27 26

GFSMW_prec_cthk_114.txt.gz
RH
10 12 19 27 32 37 42 39 40 43 46 52 47 34 39 53 64 71 73 84 97 97 99 97 96 87 86 59 55 65 69 69 62 58 65 69 65 63 65 65 62 61 62
11 11 19 28 33 39 42 40 44 43 48 53 44 36 39 48 64 67 72 81 97 96 95 95 97 87 82 64 58 64 67 63 55 60 65 76 74 66 67 68 66 66 69
14 13 21 32 36 41 43 43 42 44 50 55 44 36 39 46 60 67 70 74 97 96 97 98 98 90 71 57 42 45 49 52 59 57 60 68 79 71 68 68 73 82 80
21 20 20 30 38 43 47 47 47 46 53 55 42 36 37 42 54 64 72 75 84 97 98 97 91 81 77 62 52 54 53 51 58 61 67 70 70 69 72 72 75 82 84
24 27 29 32 39 43 47 46 48 50 55 55 42 36 37 41 51 61 70 78 82 92 96 93 91 87 86 72 53 52 54 57 58 59 64 67 67 71 74 73 79 83 83
27 31 37 38 44 47 49 49 50 53 58 55 42 35 36 41 48 58 64 78 85 87 93 95 91 88 84 77 59 54 57 61 63 66 70 71 75 76 74 75 83 85 86
31 37 42 48 54 54 51 52 54 52 57 53 40 35 37 41 49 54 63 74 85 88 89 90 93 92 88 86 79 64 64 65 71 75 74 81 84 85 85 85 89 87 88
37 41 49 52 63 61 53 53 55 55 54 52 38 35 38 42 47 55 65 77 83 87 91 93 91 93 91 91 91 82 75 77 79 81 86 90 93 92 90 90 89 89 90
36 42 50 55 64 66 58 57 56 56 55 50 37 37 39 42 47 57 68 80 87 90 92 96 98 94 93 93 92 92 86 88 91 93 96 96 95 95 91 90 91 93 93
33 38 49 59 68 64 62 62 58 62 63 46 37 38 40 44 50 59 68 80 87 92 97 99 98 99 97 97 98 98 91 90 95 96 98 98 96 95 95 96 95 97 97
39 45 51 66 69 66 67 63 60 66 67 48 39 40 43 47 52 57 62 69 80 89 97 99 98 98 96 98 99 98 97 96 94 96 97 97 98 98 96 96 96 97 97
48 61 63 77 75 71 71 67 65 73 64 47 41 44 48 50 52 55 55 58 70 83 88 98 99 99 98 99 97 98 98 99 97 97 98 97 98 97 97 98 98 97 97
51 70 83 88 84 81 74 72 72 78 59 44 44 46 51 54 53 54 54 57 61 72 78 93 98 98 99 97 99 98 98 98 96 98 98 98 98 97 97 97 97 96 95
75 87 95 97 92 88 82 77 78 80 53 44 47 48 51 55 57 58 55 57 64 65 67 77 87 95 99 98 98 98 99 97 96 95 94 97 96 96 97 97 93 89 84
78 92 97 91 93 90 88 84 85 78 54 45 48 49 50 55 58 60 59 59 61 66 70 69 76 83 89 95 97 97 95 99 97 94 97 98 96 93 89 84 81 81 83
78 90 94 93 97 89 94 91 86 80 58 48 49 52 51 54 57 60 60 60 60 62 65 70 74 75 78 81 86 93 93 94 92 89 83 80 79 80 79 79 81 85 91
83 94 94 93 94 96 96 94 88 85 67 55 51 54 55 55 55 58 61 61 61 59 60 62 66 73 76 77 78 80 79 78 78 78 77 76 77 80 82 84 86 83 83
84 88 93 92 90 96 96 98 93 87 79 64 58 57 59 58 59 61 62 61 64 63 61 60 61 63 64 66 70 71 73 74 74 75 76 77 77 76 77 78 80 83 83
84 85 88 85 88 91 96 92 93 91 86 82 72 64 61 60 60 63 67 66 66 67 66 66 64 63 64 65 66 67 68 71 76 76 80 80 80 80 81 83 82 82 83
85 87 86 87 88 88 94 89 92 95 92 90 87 81 77 67 63 65 70 71 68 68 71 72 71 69 67 68 71 72 74 76 77 80 82 84 87 89 89 89 87 83 83
85 82 82 82 80 81 82 94 96 96 95 95 91 87 88 86 83 74 75 75 73 72 74 74 76 77 76 77 80 82 82 84 86 87 88 89 91 93 91 86 83 82 79
76 75 77 74 74 68 70 84 92 99 99 99 94 94 92 91 91 91 88 83 80 80 80 79 80 81 83 87 88 88 91 92 91 92 92 93 93 95 91 84 80 79 80
60 61 62 65 68 70 65 72 86 97 94 96 96 97 96 93 94 98 98 95 90 90 90 90 91 91 91 90 92 93 96 96 98 99 98 97 93 86 83 84 84 71 63
58 58 51 55 63 67 66 62 72 85 90 93 98 93 96 96 97 96 97 98 96 95 98 95 95 99 96 98 98 97 98 97 98 97 91 86 86 86 79 68 62 56 52
64 59 52 55 60 63 65 64 64 74 80 80 86 93 97 92 89 94 94 92 92 92 93 89 91 92 95 95 92 90 97 97 96 94 90 84 74 65 62 57 52 48 42
74 68 64 61 63 61 62 64 64 65 69 74 78 84 83 84 87 89 90 91 90 86 89 98 88 97 94 91 92 96 94 95 83 80 69 62 60 56 49 45 42 39 35

GFSMW_prec_cthk_117.txt.gz
RH
10 10 10 10 10 12 17 28 35 40 43 46 48 50 52 49 38 42 55 67 73 79 96 99 97 99 99 95 89 63 51 53 62 69 70 71 69 60 56 57 54 56 54
12 13 12 11 11 13 21 32 38 44 46 49 49 50 54 42 37 44 56 68 74 85 97 99 97 98 96 98 89 62 58 57 59 68 67 70 67 61 61 59 61 61 61
18 16 12 13 14 18 24 32 41 49 50 52 54 54 53 41 37 43 55 66 73 86 97 99 97 98 97 95 85 60 56 50 64 65 63 67 67 67 66 63 64 64 66
20 21 18 14 19 22 28 34 43 50 51 54 54 56 50 40 38 43 54 61 71 82 96 98 98 98 97 92 85 59 56 53 66 68 69 61 59 68 78 75 72 70 72
25 23 21 21 22 23 29 38 47 51 53 53 52 54 48 40 38 45 53 60 68 80 88 97 96 98 98 89 86 62 65 70 69 69 60 58 61 64 70 77 71 72 75
23 22 25 27 28 31 32 41 47 55 58 57 54 52 45 38 38 45 51 60 69 82 90 96 99 98 94 88 87 69 55 56 57 57 58 59 59 62 71 71 72 73 78
25 25 25 28 32 36 43 45 50 56 58 60 59 55 44 36 38 44 50 60 70 79 87 90 96 98 98 91 87 71 55 51 50 52 56 60 63 64 68 75 74 78 85
27 27 26 30 34 41 46 54 57 59 59 61 63 61 45 36 40 44 50 62 72 85 87 91 91 95 95 95 94 85 61 55 56 59 61 62 67 70 72 79 82 86 90
29 33 33 32 33 37 49 58 62 61 59 64 66 63 49 38 41 46 53 64 74 86 91 93 95 91 88 89 88 91 80 63 55 58 64 72 78 81 82 87 91 88 92
31 32 38 40 37 39 53 61 67 66 60 65 66 63 46 40 44 50 56 68 77 88 91 92 95 93 90 87 88 88 92 85 67 66 70 79 86 88 89 94 93 94 94
35 34 38 41 41 45 56 68 71 68 62 66 65 62 42 40 45 51 57 63 70 79 86 90 95 97 97 98 97 96 95 95 89 80 80 88 93 94 96 97 97 95 95
39 40 42 40 45 50 64 77 76 71 67 70 67 60 40 40 47 54 57 59 63 67 80 83 90 99 99 98 98 97 97 98 94 91 90 91 93 94 95 98 96 98 97
39 42 41 44 52 57 71 83 80 74 72 69 71 53 39 41 49 55 58 57 61 67 73 77 87 96 98 98 98 99 96 98 99 96 94 95 94 94 97 98 96 97 97
38 44 48 57 66 71 86 87 82 80 81 77 75 54 40 43 50 55 58 56 58 66 74 75 81 93 98 99 98 99 98 99 99 98 98 95 96 97 96 97 98 98 98
43 46 53 79 85 83 94 94 87 84 88 86 73 56 42 45 52 56 58 58 58 63 69 74 77 81 93 98 98 96 99 99 98 99 97 97 98 98 98 97 97 98 98
54 57 70 84 93 91 94 97 91 90 92 90 75 56 46 48 54 57 58 59 58 61 64 68 74 82 80 86 98 99 99 98 97 97 96 97 97 97 96 96 95 90 88
62 62 78 85 88 92 96 98 96 92 94 91 75 58 49 51 56 58 60 61 60 60 63 67 70 72 77 83 84 92 98 94 98 99 98 96 96 92 86 83 83 85 85
66 75 81 82 88 92 94 98 98 97 92 90 77 59 52 52 57 58 59 62 63 63 62 63 65 67 70 74 80 88 92 95 91 89 86 82 80 81 82 85 86 84 85
73 79 82 84 88 87 91 96 99 96 93 92 82 64 55 56 60 61 61 62 65 67 66 65 65 66 66 67 68 71 72 73 74 74 74 75 79 81 83 82 85 87 88
77 86 84 84 84 84 88 91 98 93 98 95 89 76 63 61 62 66 66 65 66 69 68 69 68 68 68 68 69 70 70 71 71 73 76 81 82 83 84 87 88 89 87
82 88 84 80 81 81 83 94 97 95 97 98 96 84 76 74 70 68 68 68 68 71 73 72 71 75 74 73 73 74 76 78 78 81 83 85 87 88 91 89 83 82 86
86 84 80 75 75 80 81 82 90 97 95 99 99 92 88 85 84 84 81 75 74 75 76 75 74 75 78 79 78 78 81 83 86 87 88 89 88 90 91 89 93 95 91
84 78 69 69 67 75 81 81 90 95 97 98 99 99 96 89 91 92 89 88 87 83 83 82 80 78 80 84 87 88 90 91 92 91 92 92 93 93 94 97 92 78 75
82 75 67 69 61 70 80 81 82 86 98 96 95 98 98 93 96 93 94 96 94 93 95 97 93 85 85 86 92 92 94 96 95 97 97 97 97 97 94 80 74 67 60
85 77 65 63 60 66 71 78 79 86 94 98 99 97 98 98 98 98 99 98 98 97 99 96 96 92 96 92 90 95 95 98 98 97 97 97 93 78 72 64 62 57 52
77 72 69 65 60 62 64 71 75 79 88 94 93 95 96 98 97 95 93 91 95 96 96 94 94 90 92 94 93 94 97 96 96 91 85 72 68 66 61 57 52 49 44

GFSMW_prec_cthk_120.txt.gz
RH
18 13 15 13 13 13 12 9 9 12 24 35 43 47 46 49 52 53 55 37 40 55 70 78 82 92 98 98 98 91 88 74 65 61 64 64 70 68 62 59 54 54 52
16 18 16 13 13 15 13 12 14 17 31 37 47 50 52 52 54 54 48 33 41 52 70 78 87 96 98 97 98 93 91 75 56 56 60 66 69 68 64 62 54 55 59
19 18 17 17 18 19 20 19 19 24 35 41 49 54 55 55 57 50 38 34 45 55 73 82 94 99 99 96 98 96 90 73 56 56 56 62 65 70 68 61 57 58 62
24 21 20 22 21 23 22 22 24 25 35 43 53 57 57 54 54 46 32 37 45 55 71 83 95 98 99 97 98 98 90 84 57 61 62 66 68 67 67 61 60 61 62
24 22 21 22 25 23 21 25 27 27 39 49 57 60 62 61 59 44 34 36 41 53 67 84 96 97 98 98 99 99 95 89 55 57 64 66 70 66 68 62 65 72 70
26 26 27 25 23 22 26 25 28 35 43 52 62 64 66 64 60 49 38 36 40 48 64 82 94 99 98 99 98 97 96 86 65 59 59 68 68 69 68 61 66 76 82
33 31 26 25 22 24 27 30 32 38 45 55 62 66 67 65 58 48 38 38 40 47 66 82 90 95 98 99 99 98 94 79 65 56 59 77 70 70 67 70 72 72 79
30 27 26 29 28 24 28 30 38 42 44 56 64 68 68 63 60 45 41 38 42 51 69 83 89 95 99 97 98 98 94 79 59 60 72 70 70 69 65 67 71 77 79
36 30 27 29 29 27 26 33 41 46 48 55 68 72 70 67 64 41 41 42 45 62 77 84 90 92 96 98 98 96 92 81 69 69 68 66 68 65 62 63 68 69 78
32 30 30 31 29 27 26 31 44 51 52 58 69 72 70 68 63 39 40 44 50 70 80 93 95 95 94 95 98 95 93 89 73 62 57 57 62 61 64 68 71 75 80
33 36 33 31 29 29 30 30 37 49 58 65 70 73 72 71 61 38 39 45 54 67 85 90 93 96 95 96 93 95 95 94 83 72 64 62 59 64 73 81 85 88 92
32 37 36 35 33 34 36 33 38 46 59 67 72 76 76 75 60 39 38 46 54 60 69 82 88 93 91 97 98 92 91 92 93 87 79 70 64 67 77 85 91 92 93
26 31 35 40 38 35 41 41 41 49 60 71 77 78 76 75 58 41 40 48 54 55 59 68 80 84 88 94 98 96 94 90 86 89 93 87 78 81 88 89 92 91 92
22 27 36 44 43 41 48 48 49 56 60 77 78 80 79 71 62 43 43 49 54 55 59 68 75 80 88 98 98 99 97 96 94 95 99 96 88 91 96 95 91 92 95
23 31 39 47 47 46 53 57 59 66 67 84 83 84 81 67 63 46 47 52 52 55 58 66 73 74 86 97 98 98 99 99 98 99 99 99 96 95 97 97 95 96 97
40 40 43 47 46 50 55 65 68 70 83 89 89 86 74 70 67 49 50 54 55 56 57 61 65 74 81 94 97 99 99 99 99 99 99 99 98 98 97 97 96 96 97
43 41 49 49 52 55 61 76 78 84 94 93 93 89 77 73 70 54 53 55 57 58 59 58 59 68 77 81 92 98 98 98 98 98 98 97 97 96 98 97 97 99 98
43 45 53 54 56 62 70 74 83 88 95 95 96 91 79 74 73 58 55 57 58 60 60 59 57 60 65 72 78 81 94 95 96 98 98 98 98 98 97 99 99 90 85
43 48 58 60 61 65 72 75 86 90 98 99 97 94 78 74 76 60 57 59 60 61 62 63 61 59 59 63 69 76 86 93 95 97 99 98 99 95 93 86 83 85 87
50 56 66 68 72 74 75 81 86 94 97 99 98 96 84 77 78 68 61 61 62 64 66 65 65 65 63 62 63 66 75 81 85 84 84 80 79 76 77 78 82 86 85
63 75 74 74 79 74 77 84 89 96 97 95 97 98 93 78 79 74 66 67 65 68 68 68 69 69 69 68 68 69 69 70 70 70 71 72 74 76 79 82 84 84 86
71 75 81 80 80 77 73 83 88 96 96 96 97 98 94 82 77 77 76 73 71 70 73 73 73 71 73 73 73 74 73 74 74 76 77 78 81 82 80 84 90 92 91
79 81 82 82 78 72 71 78 86 96 96 99 97 99 96 88 78 81 80 79 80 78 77 78 80 81 81 78 76 77 79 81 82 84 87 88 88 88 90 92 92 93 89
86 88 86 81 78 74 70 79 87 92 97 98 98 98 99 93 92 88 86 88 89 91 89 87 87 87 88 89 85 83 82 83 88 91 92 92 94 95 95 94 89 82 73
89 86 84 81 76 74 71 78 88 90 96 96 98 99 99 99 97 94 91 93 94 97 98 97 96 97 95 94 96 93 90 92 95 96 96 97 97 96 87 79 73 66 58
87 86 85 80 72 71 74 81 86 89 93 99 98 98 98 98 98 98 98 97 99 97 99 98 99 98 98 98 99 95 95 98 98 96 96 96 88 79 70 62 56 52 49

GFSMW_prec_cthk_123.txt.gz
RH
18 20 21 25 24 22 18 17 12 10 11 13 17 26 31 39 47 49 56 54 52 50 46 41 50 64 71 83 91 98 97 92 82 75 84 75 72 64 61 61 60 64 57
22 22 29 29 26 23 20 21 16 14 14 19 24 30 34 42 49 52 55 58 55 47 37 39 49 63 74 77 87 98 98 94 86 76 77 81 75 67 62 60 60 60 50
22 30 31 30 27 24 22 22 22 23 22 24 27 31 40 47 54 55 57 58 55 46 35 40 51 62 76 85 93 98 98 94 88 88 72 69 64 62 62 63 58 60 57
32 29 24 30 28 24 22 22 26 26 27 26 32 34 42 52 54 58 60 59 56 40 38 41 52 62 78 91 96 99 97 95 90 88 80 64 52 60 65 64 59 64 59
33 26 23 24 23 23 25 25 27 32 32 29 37 41 50 57 62 64 63 61 51 40 39 44 54 64 82 94 98 98 99 94 93 85 84 62 58 58 63 67 64 61 60
32 27 28 24 27 26 26 28 30 31 31 30 35 44 51 60 66 69 65 62 49 38 38 44 52 67 84 94 99 99 98 93 96 88 77 60 57 61 66 68 67 62 65
37 34 34 29 28 26 29 31 32 33 33 32 38 48 54 63 71 67 66 58 48 35 36 42 51 68 82 98 97 99 99 96 96 91 86 64 59 62 70 72 70 67 70
43 39 35 32 31 27 26 26 32 33 33 36 38 50 58 66 72 71 68 61 49 35 36 42 54 71 82 95 98 99 99 98 96 94 91 73 64 66 70 74 76 80 79
44 42 35 34 32 30 28 23 25 32 33 36 38 50 59 68 73 75 67 65 52 37 37 44 58 78 82 95 98 98 99 99 98 95 94 78 65 64 70 75 78 75 74
38 37 36 41 35 33 29 29 25 30 32 37 42 44 58 66 75 76 71 67 53 40 41 50 66 81 86 92 98 99 98 99 98 97 92 78 74 65 72 76 77 75 70
34 36 41 42 40 40 35 34 32 29 30 34 45 50 56 64 75 78 74 69 50 43 45 54 73 86 90 91 97 98 99 98 98 95 87 74 73 68 76 73 70 69 70
29 29 37 41 46 39 36 37 35 33 33 34 41 52 60 65 72 76 76 68 49 43 50 56 67 83 82 90 95 96 98 98 97 90 91 76 75 79 77 70 68 69 75
31 26 34 40 44 47 40 39 41 39 38 37 37 51 60 66 73 77 77 65 49 46 52 55 58 65 80 82 95 93 94 98 95 93 95 93 83 79 69 62 68 74 80
26 25 28 42 52 52 44 41 41 43 42 42 46 52 62 71 78 80 75 65 49 48 54 55 56 60 71 77 79 89 94 97 95 96 98 95 84 79 77 71 74 82 92
29 35 42 53 52 51 46 43 44 45 49 51 56 52 63 72 80 81 73 64 51 50 53 54 55 61 70 74 75 85 93 99 98 98 99 99 97 97 96 90 89 91 96
32 44 55 49 46 47 48 46 48 45 51 58 63 61 68 75 81 82 71 65 56 52 53 54 57 60 66 73 76 90 97 95 98 98 99 98 98 98 96 97 94 96 98
44 46 45 43 43 46 47 48 49 48 52 63 68 68 72 81 87 81 75 70 59 54 54 55 58 58 60 68 75 92 97 98 99 99 99 99 99 99 98 98 98 98 98
56 52 47 44 43 46 49 47 48 50 53 68 75 77 78 89 91 81 77 74 63 56 56 58 58 57 58 65 73 80 94 98 98 99 99 98 99 98 98 98 98 98 98
55 53 49 44 43 46 52 53 51 52 56 69 84 84 87 97 87 81 78 78 70 60 59 59 59 59 57 59 68 75 79 91 97 97 98 98 98 98 98 98 98 99 97
65 60 50 47 50 55 60 60 53 56 63 71 88 92 94 98 86 80 84 82 74 65 62 61 62 62 62 60 63 66 72 79 90 93 96 97 98 97 98 99 97 98 93
78 70 55 60 60 65 65 60 58 58 68 73 90 93 94 97 83 87 87 82 76 69 65 63 64 64 65 64 62 62 65 71 74 83 85 90 96 95 91 84 81 80 78
78 72 69 69 71 72 77 71 63 61 71 77 88 94 95 95 91 88 86 88 82 75 69 67 68 68 67 68 67 68 70 71 70 69 68 69 71 74 75 76 77 78 84
83 72 70 72 76 82 79 78 71 63 72 81 91 96 97 97 98 93 85 89 88 86 78 78 74 73 74 73 73 75 74 76 76 76 76 76 77 78 80 85 90 88 88
92 84 79 72 81 84 81 80 77 67 77 89 94 98 99 99 98 93 91 89 90 88 86 84 82 81 82 82 84 85 84 82 81 81 83 82 82 87 91 93 94 96 94
88 90 85 83 87 85 84 86 77 73 82 92 98 98 98 99 99 98 89 92 93 94 91 91 89 88 86 87 89 91 92 95 93 91 88 86 90 91 93 95 91 82 74
81 87 91 89 88 86 82 83 79 79 90 95 98 98 97 98 98 98 97 95 95 95 96 99 96 95 97 97 98 97 97 99 98 97 98 98 97 95 88 81 76 71 64